Temp
56 56 56 56 56 56 56 56 56 56 57 57 58 58 58 58 56 61 80 79 76 79 86 88 89 85 89 88 83 89 88 87 85 79 79 80 80 84 82 84 80 78 75 75 76 71 67 90 86 75 81 86 86 86
55 55 55 55 56 56 56 56 56 56 56 56 57 57 57 57 56 56 77 81 79 73 84 87 89 91 90 90 87 90 87 84 89 83 84 85 81 84 79 74 88 77 82 77 78 79 84 89 86 90 90 85 85 85
55 55 55 55 55 55 55 56 56 56 56 56 57 57 57 56 56 56 69 75 77 76 83 87 88 92 95 93 96 82 88 91 87 91 84 83 76 85 76 79 81 85 88 80 78 83 86 89 91 90 90 88 89 88
55 55 55 55 55 55 55 55 55 55 56 56 56 57 56 56 55 55 69 74 73 75 73 86 94 86 91 94 91 92 90 93 90 87 82 80 78 88 81 84 82 86 86 80 79 82 85 87 88 88 88 88 88 89
54 54 54 54 55 55 55 55 55 55 55 55 56 56 56 55 54 60 73 77 76 69 71 78 89 92 93 92 88 88 87 86 83 80 79 77 84 84 85 86 81 88 83 79 77 85 83 83 88 89 86 86 87 87
54 54 54 54 54 55 55 55 55 55 55 55 55 55 54 54 53 70 71 77 81 76 69 73 89 85 87 86 84 83 85 84 83 81 80 83 90 84 77 75 84 89 89 89 83 88 86 87 88 88 85 86 87 87
54 54 54 54 54 54 54 54 54 55 55 55 54 54 54 54 65 71 67 68 59 73 70 71 79 86 85 85 86 85 87 84 83 81 79 81 83 82 79 72 82 88 89 89 90 88 83 85 83 88 87 87 84 88
54 54 54 54 54 54 54 54 54 54 55 54 54 53 54 55 56 66 71 60 62 71 74 68 73 79 86 81 81 88 81 82 81 79 82 79 82 81 72 80 85 87 88 87 87 89 88 89 88 87 88 88 85 84
53 54 54 54 54 54 54 54 54 54 54 54 54 55 64 64 75 71 57 58 70 70 67 74 69 70 86 81 83 82 81 74 83 77 78 80 77 71 78 80 82 84 84 84 86 86 86 84 84 85 86 86 83 83
53 53 54 54 54 54 54 54 53 53 54 54 63 72 72 70 58 62 65 67 69 72 71 68 77 69 79 77 75 77 81 74 72 78 83 75 74 82 86 88 87 85 85 85 80 78 81 81 81 82 83 85 85 85
53 53 53 54 54 54 54 54 53 53 58 70 67 69 70 64 71 72 68 67 69 65 73 76 74 70 81 70 71 78 74 75 64 74 72 72 73 76 84 84 83 83 83 84 83 84 85 84 82 81 81 83 85 85
53 53 53 53 53 53 54 54 53 62 64 56 54 59 67 69 68 62 65 68 65 66 69 69 66 74 75 77 71 74 69 73 63 79 68 65 74 78 80 80 82 83 83 83 84 83 84 83 83 83 83 82 84 86
53 53 53 53 53 54 54 54 54 54 57 61 56 59 66 66 49 56 57 64 65 67 67 73 70 73 72 76 71 71 65 66 79 68 67 73 75 79 78 80 80 82 83 83 83 84 83 83 83 83 81 84 85 85
52 52 52 53 53 53 54 54 54 57 57 61 61 41 58 59 63 69 67 65 71 69 72 72 70 70 74 64 67 62 69 71 63 60 59 64 71 73 77 79 79 79 81 81 81 82 82 81 81 82 83 83 84 83
52 52 52 54 56 55 54 54 54 61 57 54 59 46 61 70 71 72 72 72 74 76 72 70 70 71 67 63 65 64 60 59 63 59 61 63 68 71 73 77 78 78 79 79 81 80 80 80 80 81 82 85 85 85
53 53 60 55 54 54 53 58 62 61 54 51 53 56 65 64 68 70 71 70 78 73 73 70 64 59 60 63 59 58 56 50 56 64 70 71 67 69 71 76 76 77 77 79 79 79 79 79 79 81 83 84 84 83
52 58 56 54 54 53 54 58 59 52 53 50 54 66 65 66 65 68 70 70 75 69 63 63 54 53 58 59 57 62 51 62 68 70 70 69 68 67 70 72 75 76 77 78 78 78 79 80 82 81 78 80 84 84
53 61 55 54 54 56 59 55 55 53 49 55 57 66 71 70 67 68 70 71 68 66 65 58 61 56 50 52 59 64 65 70 70 66 66 69 70 71 71 70 68 66 76 78 78 78 79 79 78 78 81 81 80 82
52 54 54 53 54 51 51 55 59 49 53 61 65 67 67 68 71 71 71 70 68 69 65 64 58 59 57 61 63 65 64 68 63 65 66 70 70 69 70 68 72 77 78 76 78 80 82 80 79 79 83 85 82 84
53 53 53 54 54 50 50 55 61 51 51 59 64 62 65 66 69 68 66 64 61 58 59 60 63 68 64 67 70 70 69 68 65 62 67 69 73 74 74 70 76 76 77 77 80 65 72 83 79 83 85 83 82 84
53 57 55 56 53 51 54 56 53 56 57 57 64 64 62 67 66 63 61 65 60 58 58 65 68 72 68 70 73 70 64 63 60 66 68 69 74 74 75 78 80 77 78 69 75 76 59 72 82 84 83 82 82 84
57 55 56 56 53 53 52 59 57 58 55 60 61 64 61 61 62 61 66 60 63 61 64 67 68 70 70 69 69 72 64 62 68 72 62 68 73 75 74 77 80 76 73 69 80 79 73 72 83 82 83 82 77 83
54 56 58 58 51 47 48 61 51 53 49 53 59 56 57 54 60 65 58 54 54 59 61 61 64 65 64 68 67 67 68 70 71 74 76 78 78 78 78 76 74 72 71 74 83 80 77 69 76 81 84 85 82 81
54 52 50 48 47 47 57 51 59 55 57 56 54 54 55 59 63 56 50 52 55 57 57 60 63 65 67 68 65 66 67 68 72 76 63 62 75 64 65 71 74 74 82 83 80 81 82 77 68 75 74 75 75 74
44 45 44 39 53 50 49 50 52 54 49 53 54 57 58 62 57 52 51 51 54 56 56 58 59 59 58 63 64 65 71 68 69 72 75 73 68 76 76 76 72 65 83 81 76 75 77 80 80 74 75 75 77 77
40 49 43 50 51 50 51 47 49 49 52 53 54 59 62 59 51 47 54 56 55 56 56 55 55 56 57 62 63 68 71 71 68 68 66 70 68 65 59 63 69 73 81 81 80 79 78 79 78 77 73 72 59 72
39 48 54 61 56 56 55 59 58 53 51 52 50 54 54 49 46 51 59 57 55 59 57 56 57 56 57 60 63 64 65 66 68 68 65 67 67 68 64 68 70 75 81 80 80 80 78 75 75 74 72 72 71 72
52 53 49 53 53 57 50 52 52 52 55 58 59 50 50 52 52 63 61 58 64 57 58 61 59 58 58 58 62 61 62 64 66 67 68 75 70 67 77 74 74 51 72 70 75 75 76 73 71 71 69 68 67 71
52 56 55 50 52 52 54 55 56 62 60 62 56 53 57 64 68 62 57 60 60 56 56 53 54 57 64 64 65 66 77 74 69 67 67 66 66 70 74 76 78 72 68 72 48 57 67 70 70 68 68 67 67 68
54 57 52 53 50 49 58 62 60 63 64 65 65 66 67 65 63 70 66 60 55 53 54 55 60 71 71 70 71 73 75 77 75 71 68 67 63 69 74 77 75 76 77 75 74 73 57 69 65 72 69 69 69 69
55 55 51 53 52 60 62 66 67 70 68 66 67 63 63 65 65 70 66 57 56 56 56 62 68 70 71 73 71 70 69 73 73 72 70 72 68 70 74 74 75 76 76 76 75 73 72 71 71 70 69 69 68 67
53 52 52 49 52 63 66 62 63 61 62 60 60 65 64 63 58 62 61 59 57 56 57 62 64 62 67 69 67 66 55 70 68 68 67 72 72 75 75 74 74 76 78 76 75 74 73 72 72 71 70 68 68 68
52 52 53 52 52 57 62 61 59 59 62 62 62 65 63 57 52 57 65 66 62 62 65 66 66 67 66 63 66 62 59 60 51 40 41 40 40 52 70 75 77 77 76 75 74 74 71 70 70 69 69 68 68 68
MSLP
1026.28 1025.87 1025.43 1024.97 1024.51 1024.04 1023.61 1023.11 1022.53 1021.89 1021.24 1020.66 1020.13 1019.59 1019.02 1018.42 1017.72 1016.69 1013.67 1013.69 1012.78 1010.06 1007.56 1006.88 1006.40 1005.81 1004.83 1004.60 1003.77 1002.94 1003.31 1003.30 1003.32 1002.68 1002.19 1001.32 1000.55 1000.03 999.65 999.52 999.90 1000.11 1000.39 1000.35 1000.38 1000.08 999.76 1000.05 1000.97 1001.60 1001.93 1002.47 1002.76 1002.98
1026.38 1025.99 1025.52 1025.04 1024.59 1024.14 1023.65 1023.13 1022.60 1022.06 1021.51 1020.94 1020.34 1019.78 1019.23 1018.74 1018.22 1017.46 1014.05 1013.56 1013.79 1012.36 1008.47 1008.15 1007.46 1007.02 1006.64 1006.09 1005.51 1004.23 1003.74 1003.74 1003.06 1002.52 1002.16 1001.56 1000.81 1000.24 1000.13 999.53 999.69 999.94 1000.19 1000.27 1000.46 999.90 1000.78 1001.10 1001.58 1001.67 1002.03 1002.67 1003.06 1003.10
1026.42 1026.02 1025.58 1025.15 1024.71 1024.20 1023.66 1023.12 1022.59 1022.05 1021.50 1020.93 1020.40 1019.88 1019.36 1018.88 1018.46 1018.11 1015.85 1014.45 1013.22 1011.25 1008.38 1006.91 1005.81 1006.11 1006.59 1006.66 1006.47 1005.74 1004.47 1004.05 1004.17 1004.05 1003.64 1002.42 1001.38 1001.07 1000.23 999.76 999.90 999.98 1000.40 1000.64 1001.13 1000.85 1000.73 1000.83 1001.20 1001.71 1002.16 1002.51 1002.67 1002.99
1026.45 1026.02 1025.57 1025.13 1024.71 1024.23 1023.68 1023.14 1022.63 1022.02 1021.41 1020.83 1020.27 1019.71 1019.17 1018.76 1018.39 1018.07 1015.89 1015.03 1014.22 1012.25 1009.41 1005.85 1006.13 1006.40 1006.75 1006.29 1006.40 1006.15 1005.72 1005.19 1005.30 1005.08 1004.24 1003.29 1002.09 1001.56 1000.83 1000.44 1000.23 1000.07 1000.15 1000.51 1000.75 1001.29 1001.24 1001.31 1001.52 1001.88 1002.22 1002.57 1002.74 1002.80
1026.43 1026.01 1025.55 1025.08 1024.66 1024.20 1023.62 1023.01 1022.39 1021.79 1021.20 1020.65 1020.07 1019.47 1018.90 1018.44 1018.16 1017.51 1015.56 1015.30 1015.16 1014.14 1010.65 1007.60 1006.28 1005.76 1006.04 1005.89 1006.33 1006.41 1006.10 1005.73 1005.32 1004.79 1004.13 1003.18 1002.54 1002.03 1001.32 1000.84 1000.23 1000.42 1000.30 1000.49 1000.31 1000.88 1001.21 1001.45 1001.77 1002.19 1002.33 1002.53 1002.57 1002.67
1026.37 1025.94 1025.45 1024.98 1024.47 1023.99 1023.45 1022.84 1022.19 1021.54 1020.85 1020.20 1019.54 1018.92 1018.43 1018.00 1017.81 1016.18 1014.52 1014.91 1014.96 1014.55 1012.56 1008.31 1006.02 1005.90 1006.11 1006.37 1006.30 1006.04 1005.72 1005.50 1005.20 1004.29 1003.74 1003.10 1002.59 1002.12 1001.21 1000.53 1000.51 1000.40 1000.82 1000.95 1001.11 1001.52 1001.73 1001.91 1002.09 1002.37 1002.58 1002.56 1002.60 1002.48
1026.27 1025.85 1025.44 1025.00 1024.46 1023.90 1023.32 1022.71 1021.99 1021.26 1020.54 1019.79 1019.03 1018.42 1017.88 1017.49 1016.66 1015.63 1015.78 1015.87 1016.20 1015.26 1012.52 1008.99 1005.83 1005.57 1006.32 1005.92 1005.28 1005.26 1005.26 1004.94 1004.61 1004.08 1003.58 1003.07 1002.38 1002.21 1001.40 1000.67 1001.17 1000.74 1000.66 1000.86 1001.11 1001.34 1001.54 1001.80 1001.83 1001.81 1001.88 1002.09 1002.18 1002.05
1026.16 1025.74 1025.36 1024.87 1024.35 1023.85 1023.27 1022.59 1021.72 1020.81 1019.98 1019.26 1018.61 1018.10 1017.60 1017.30 1017.26 1016.39 1016.17 1016.40 1016.37 1014.47 1012.33 1009.53 1006.68 1005.57 1005.89 1004.99 1004.39 1004.80 1004.67 1004.48 1004.24 1003.81 1003.12 1002.57 1002.23 1002.03 1000.94 1001.01 1001.01 1000.80 1000.74 1000.87 1001.21 1001.47 1001.31 1001.37 1001.55 1001.67 1001.72 1001.62 1001.56 1001.57
1025.99 1025.65 1025.23 1024.71 1024.20 1023.70 1023.10 1022.41 1021.53 1020.43 1019.30 1018.43 1017.92 1017.76 1017.02 1016.80 1014.63 1015.54 1016.65 1016.51 1015.73 1014.53 1011.55 1009.06 1007.33 1005.77 1006.02 1005.33 1004.98 1004.68 1004.64 1003.56 1003.17 1002.79 1002.61 1002.51 1001.45 1000.70 1000.55 1000.98 1000.99 1000.94 1000.85 1000.95 1001.31 1001.55 1001.62 1001.59 1001.60 1001.46 1001.30 1001.22 1001.19 1001.04
1025.86 1025.46 1025.04 1024.56 1024.07 1023.56 1023.01 1022.32 1021.42 1020.16 1018.76 1017.46 1017.27 1016.08 1014.28 1015.48 1016.49 1016.55 1016.14 1014.70 1013.63 1012.64 1011.94 1009.67 1008.21 1007.26 1006.69 1005.88 1005.27 1004.63 1003.47 1003.13 1001.85 1001.35 1001.40 1001.51 1000.96 1000.67 1000.42 1000.11 1000.31 1000.82 1001.32 1001.70 1001.71 1001.75 1001.62 1001.53 1001.55 1001.53 1001.40 1001.15 1000.99 1000.70
1025.58 1025.25 1024.86 1024.45 1024.00 1023.46 1022.92 1022.33 1021.54 1020.25 1018.10 1017.24 1016.87 1015.88 1016.11 1015.89 1015.34 1013.87 1012.79 1012.05 1011.40 1010.61 1009.66 1008.79 1008.38 1007.65 1007.06 1006.63 1005.88 1005.00 1003.82 1002.77 1001.86 1000.94 1000.87 1000.72 1000.00 999.91 1000.07 1000.51 1001.33 1001.79 1002.09 1002.08 1002.12 1002.14 1001.91 1001.80 1001.67 1001.47 1001.38 1001.05 1000.74 1000.45
1025.38 1025.07 1024.65 1024.20 1023.80 1023.34 1022.86 1022.30 1021.75 1020.28 1019.79 1020.41 1020.54 1018.97 1016.82 1014.63 1013.46 1012.67 1011.27 1010.73 1010.38 1008.95 1009.31 1008.87 1009.04 1008.23 1007.77 1007.82 1006.84 1005.53 1004.60 1003.44 1002.00 1001.72 1001.74 1001.03 1000.78 1001.14 1001.40 1001.51 1001.90 1002.18 1002.20 1002.24 1002.21 1002.08 1001.88 1001.71 1001.51 1001.24 1000.94 1000.77 1000.44 1000.15
1025.12 1024.77 1024.32 1023.83 1023.45 1023.11 1022.67 1022.29 1021.85 1021.28 1020.18 1019.45 1019.54 1017.31 1015.06 1013.72 1012.86 1011.44 1010.05 1009.30 1008.86 1009.57 1009.65 1008.90 1008.35 1008.16 1008.05 1007.81 1006.79 1005.74 1004.73 1003.27 1002.16 1002.16 1001.84 1001.27 1001.69 1002.07 1002.40 1002.35 1002.53 1002.59 1002.41 1002.26 1002.09 1001.95 1001.75 1001.62 1001.53 1001.17 1000.74 1000.36 999.99 999.84
1024.69 1024.38 1023.89 1023.36 1023.01 1022.75 1022.46 1022.14 1021.72 1020.82 1020.13 1017.83 1016.49 1016.03 1014.10 1012.16 1010.98 1009.69 1009.34 1009.52 1010.19 1009.98 1009.24 1009.05 1008.74 1008.34 1007.92 1008.35 1006.96 1005.83 1004.55 1003.64 1003.10 1002.76 1003.36 1003.94 1003.15 1003.07 1003.42 1003.15 1002.99 1002.86 1002.68 1002.44 1002.17 1001.86 1001.64 1001.52 1001.33 1000.95 1000.43 1000.21 1000.02 999.83
1024.36 1023.99 1023.40 1022.76 1022.45 1022.43 1022.22 1021.86 1021.42 1020.62 1020.00 1018.47 1016.66 1014.78 1012.44 1011.08 1010.98 1010.70 1010.48 1010.26 1009.95 1009.85 1009.70 1009.27 1009.20 1008.70 1007.94 1008.12 1007.53 1006.67 1005.56 1004.32 1003.52 1004.30 1005.34 1005.74 1005.17 1004.73 1004.34 1003.83 1003.48 1003.25 1002.94 1002.68 1002.33 1002.07 1001.90 1001.69 1001.25 1000.74 1000.43 999.89 999.54 999.44
1024.17 1023.46 1022.26 1022.39 1022.37 1022.21 1021.95 1021.18 1020.23 1020.16 1019.87 1018.82 1017.16 1014.50 1012.38 1011.63 1010.42 1010.25 1010.10 1009.85 1009.92 1010.32 1010.25 1010.03 1009.72 1009.38 1008.47 1007.63 1007.22 1006.75 1006.47 1006.05 1005.76 1006.07 1006.14 1005.89 1005.90 1005.65 1005.36 1004.60 1004.15 1003.84 1003.50 1002.96 1002.56 1002.33 1002.12 1001.67 1001.25 1000.76 1000.36 999.93 999.74 999.67
1023.99 1022.82 1022.32 1022.30 1022.18 1021.79 1021.54 1021.09 1019.94 1019.68 1018.51 1017.64 1015.67 1013.65 1012.84 1011.87 1011.17 1010.83 1010.73 1010.67 1010.76 1010.89 1010.36 1010.17 1010.23 1009.35 1009.04 1007.81 1007.53 1007.74 1007.51 1006.72 1006.71 1006.70 1006.76 1006.63 1006.28 1006.13 1005.66 1005.18 1004.46 1004.04 1003.39 1003.04 1002.69 1002.46 1002.10 1001.71 1001.12 1000.56 1000.27 1000.21 999.77 999.45
1023.22 1022.07 1022.34 1022.23 1022.06 1021.24 1020.84 1020.90 1019.61 1018.70 1017.62 1016.33 1014.73 1012.54 1011.79 1011.63 1011.34 1011.09 1011.02 1011.08 1011.25 1010.97 1010.88 1010.71 1010.78 1009.89 1009.50 1008.32 1007.79 1007.91 1007.78 1007.35 1007.42 1007.69 1007.41 1006.82 1006.32 1005.95 1005.61 1005.33 1005.15 1005.27 1003.69 1003.05 1002.68 1002.28 1001.74 1001.40 1001.08 1000.19 1000.03 999.95 999.78 999.12
1022.68 1022.37 1022.15 1022.15 1021.96 1021.77 1020.76 1019.72 1019.15 1017.96 1016.56 1015.11 1013.89 1013.04 1012.33 1011.70 1011.28 1011.23 1011.20 1011.27 1011.69 1011.62 1011.36 1010.65 1009.88 1008.62 1008.49 1008.43 1008.24 1008.03 1008.02 1007.83 1007.91 1007.63 1007.07 1006.38 1006.29 1005.97 1005.57 1005.15 1004.61 1003.64 1003.17 1003.00 1002.29 1001.71 1001.15 1001.13 1001.01 1000.65 1000.02 999.33 998.99 998.52
1022.09 1021.88 1021.76 1021.78 1021.81 1021.42 1020.24 1018.95 1018.99 1017.91 1016.24 1014.61 1013.84 1012.94 1011.97 1011.41 1011.18 1011.11 1011.23 1011.56 1011.98 1012.19 1011.28 1010.03 1008.96 1007.95 1008.77 1008.56 1008.37 1008.23 1008.36 1008.39 1008.49 1007.91 1006.63 1006.21 1005.74 1005.28 1004.83 1004.63 1003.92 1003.53 1002.93 1002.03 1001.52 1001.29 1001.24 1000.25 1000.02 999.66 999.58 999.58 999.38 998.77
1021.62 1021.09 1021.41 1021.32 1021.22 1021.12 1019.93 1018.43 1017.81 1016.88 1015.85 1014.74 1013.33 1012.68 1012.03 1011.45 1010.78 1010.72 1011.07 1011.24 1011.60 1011.44 1010.28 1009.35 1008.49 1007.89 1008.21 1008.15 1007.99 1008.08 1008.52 1008.72 1008.50 1007.78 1006.81 1005.77 1005.17 1004.68 1004.33 1003.72 1003.09 1002.79 1001.99 1002.01 1001.31 1001.07 1001.25 1000.18 999.74 999.63 999.58 999.27 998.91 998.59
1020.98 1021.04 1020.90 1021.00 1020.47 1020.07 1019.36 1018.00 1017.18 1016.55 1016.16 1014.19 1013.27 1012.49 1011.77 1010.84 1010.57 1010.95 1011.14 1011.15 1010.84 1010.36 1009.75 1008.94 1008.53 1008.23 1007.91 1007.74 1007.70 1007.50 1007.63 1007.91 1007.42 1006.57 1005.92 1005.10 1004.52 1003.71 1003.37 1002.86 1002.43 1002.08 1001.69 1001.68 1000.91 1001.25 1000.74 1000.57 999.95 1000.15 999.67 999.25 999.08 998.67
1021.10 1020.87 1020.15 1019.77 1019.53 1019.11 1018.26 1017.26 1016.78 1016.16 1015.47 1014.20 1013.08 1012.36 1011.57 1011.39 1011.11 1011.38 1011.40 1011.77 1011.81 1011.52 1010.97 1010.31 1009.63 1009.17 1008.70 1008.09 1007.90 1007.30 1007.38 1007.09 1006.37 1005.38 1004.57 1003.68 1003.24 1002.63 1002.36 1002.20 1002.07 1001.78 1001.39 1001.02 1000.93 1000.88 1000.61 1000.28 1000.06 1000.23 999.54 999.13 998.88 998.82
1021.01 1020.54 1019.64 1019.42 1019.21 1018.09 1017.23 1016.56 1015.92 1015.40 1014.46 1013.61 1012.71 1011.66 1011.21 1010.85 1011.05 1011.20 1011.87 1012.23 1012.15 1011.80 1011.24 1010.67 1009.93 1009.00 1008.32 1007.53 1007.26 1006.98 1006.62 1006.18 1005.44 1004.22 1004.51 1004.03 1002.93 1003.26 1003.50 1002.87 1002.29 1001.80 1001.36 1001.15 1001.04 1000.95 1000.66 1000.44 1000.40 1000.22 1000.06 999.71 999.61 999.51
1020.71 1020.14 1019.83 1018.97 1017.97 1017.35 1016.34 1015.69 1014.97 1014.49 1014.06 1013.36 1012.37 1011.23 1010.59 1010.50 1010.60 1010.98 1011.83 1012.40 1012.20 1011.74 1011.48 1010.94 1010.39 1009.81 1009.22 1008.21 1007.53 1007.03 1006.52 1006.38 1005.72 1005.06 1004.76 1004.54 1004.33 1003.91 1003.54 1003.26 1002.88 1003.02 1001.45 1001.39 1001.76 1001.64 1001.15 1000.81 1000.47 1000.32 1000.13 1000.27 1000.04 999.88
1019.70 1018.69 1018.48 1016.99 1016.61 1016.19 1015.56 1014.88 1014.44 1014.29 1013.69 1012.72 1012.22 1011.71 1010.81 1010.45 1010.96 1011.75 1012.01 1012.34 1012.23 1011.95 1011.71 1011.35 1010.86 1010.14 1009.50 1008.85 1008.08 1007.19 1006.88 1006.76 1006.40 1005.82 1005.93 1005.65 1005.56 1005.42 1005.02 1004.50 1003.55 1002.82 1002.18 1002.09 1001.70 1001.31 1001.02 1000.66 1000.45 1000.54 1000.76 1000.10 1000.47 1000.70
1018.72 1017.27 1016.68 1015.94 1015.83 1015.65 1014.96 1014.24 1014.00 1013.80 1013.17 1012.44 1012.60 1011.99 1011.23 1011.06 1011.68 1012.24 1012.31 1012.84 1012.62 1012.26 1012.10 1011.56 1011.11 1010.42 1009.95 1009.39 1008.74 1008.46 1007.98 1007.50 1006.90 1006.69 1006.49 1006.06 1005.75 1005.49 1004.92 1003.94 1003.76 1003.38 1002.75 1002.43 1002.28 1001.87 1001.46 1001.55 1001.55 1001.71 1001.70 1001.72 1001.80 1001.70
1017.39 1016.59 1015.80 1015.53 1015.24 1014.99 1014.78 1014.27 1013.56 1012.82 1012.30 1012.40 1012.27 1011.88 1011.27 1011.24 1011.53 1011.58 1012.66 1013.01 1012.57 1012.79 1012.25 1011.84 1011.39 1010.73 1010.17 1009.59 1009.09 1008.37 1007.74 1007.26 1006.85 1006.56 1006.15 1005.45 1005.23 1004.77 1004.04 1003.91 1003.93 1004.49 1004.29 1004.48 1003.72 1003.29 1003.07 1002.86 1002.80 1002.68 1002.83 1003.07 1003.21 1003.10
1016.28 1015.69 1015.35 1015.08 1014.97 1014.69 1014.02 1013.19 1012.39 1011.80 1012.07 1011.58 1011.57 1011.52 1011.15 1010.95 1011.29 1012.11 1012.77 1012.88 1012.96 1012.78 1012.28 1011.87 1011.20 1010.52 1009.56 1008.65 1008.11 1007.68 1006.88 1006.83 1006.60 1006.18 1005.88 1005.74 1005.74 1005.36 1004.76 1004.32 1004.01 1004.44 1004.70 1004.73 1005.26 1005.08 1004.90 1004.73 1004.34 1004.24 1004.02 1004.07 1004.21 1004.42
1015.14 1015.18 1014.95 1014.37 1014.08 1013.81 1012.93 1012.22 1011.77 1011.77 1011.80 1011.45 1011.44 1011.08 1010.66 1010.86 1011.58 1011.97 1012.34 1012.82 1012.99 1012.95 1012.59 1011.93 1010.85 1009.19 1008.48 1007.98 1007.54 1007.30 1007.14 1007.04 1006.95 1006.93 1006.66 1006.39 1006.60 1006.00 1005.06 1004.69 1004.57 1004.47 1004.48 1004.78 1005.08 1005.15 1005.08 1004.79 1005.04 1004.85 1004.80 1004.80 1004.76 1004.71
1014.88 1014.58 1014.54 1014.09 1013.39 1012.65 1011.94 1011.57 1011.26 1010.85 1010.84 1010.83 1010.86 1010.79 1010.65 1010.73 1011.30 1011.95 1012.41 1012.95 1013.02 1012.87 1012.41 1011.38 1009.99 1009.28 1008.79 1008.19 1008.12 1007.98 1007.65 1007.87 1008.05 1008.00 1007.94 1007.22 1006.91 1006.34 1005.71 1005.52 1005.29 1005.11 1005.00 1005.02 1005.33 1005.60 1005.63 1005.53 1005.37 1005.33 1005.34 1005.28 1005.38 1005.25
1014.47 1014.04 1013.56 1013.29 1012.78 1011.75 1011.27 1011.10 1010.58 1010.23 1010.21 1010.34 1010.27 1010.12 1010.43 1010.61 1011.29 1011.93 1012.55 1012.70 1012.73 1012.56 1011.92 1011.08 1010.46 1010.36 1009.99 1009.72 1009.52 1009.49 1009.77 1009.38 1009.53 1009.21 1008.88 1007.97 1007.44 1006.95 1006.94 1006.87 1006.58 1005.99 1005.54 1005.82 1005.92 1005.94 1006.03 1005.94 1005.89 1005.83 1005.88 1006.01 1005.99 1005.90
1013.66 1013.62 1013.36 1013.15 1012.49 1011.34 1010.50 1010.38 1009.99 1009.66 1009.35 1009.26 1009.38 1009.42 1010.06 1011.14 1011.93 1012.31 1012.37 1012.38 1012.45 1012.08 1011.23 1010.83 1010.75 1010.57 1010.67 1010.64 1010.19 1010.56 1010.73 1010.96 1010.88 1010.65 1010.26 1009.80 1009.22 1008.76 1008.10 1007.39 1006.76 1006.64 1006.52 1006.56 1006.68 1006.86 1006.98 1006.98 1006.93 1006.89 1006.79 1006.72 1006.70 1006.64
Wind_Speed
14 15 16 16 17 17 17 17 18 19 20 22 21 22 22 22 21 13 3 7 7 6 10 10 9 9 8 6 10 1 4 8 9 12 12 14 15 14 16 14 14 14 12 13 13 16 20 8 2 7 8 9 11 14
14 14 16 16 17 17 17 17 18 19 20 21 21 21 21 20 19 16 4 5 5 6 9 12 13 13 12 14 11 11 10 5 4 6 9 9 11 12 9 13 11 15 14 12 15 8 4 2 7 9 9 10 14 13
14 15 15 16 17 17 17 18 18 19 20 20 21 21 20 17 14 10 6 6 6 6 10 11 6 5 9 13 13 10 9 9 12 9 10 11 13 9 12 11 14 14 12 13 12 13 15 13 8 9 10 15 14 12
14 15 16 16 16 17 18 18 19 21 20 20 21 21 20 16 12 9 6 6 5 6 6 2 4 4 0 6 8 15 16 12 7 8 9 11 13 11 13 15 14 12 5 8 11 14 16 15 15 10 11 10 11 11
14 15 15 16 16 17 18 19 21 21 22 22 22 21 19 15 11 10 6 2 3 6 7 9 16 7 6 7 9 10 11 13 10 11 11 12 12 14 12 15 11 12 13 11 11 11 12 13 11 11 11 13 11 14
14 15 16 17 17 18 19 20 23 24 24 24 23 22 19 14 8 7 6 4 0 3 6 6 6 3 4 5 8 9 11 11 10 11 10 12 19 14 8 12 14 12 11 11 11 9 12 12 13 10 14 15 17 16
14 15 16 17 17 19 20 22 24 25 23 23 23 20 17 9 7 4 8 6 6 6 6 6 4 7 2 6 6 5 8 7 8 10 13 12 12 7 13 15 16 17 12 12 12 12 12 13 10 13 12 14 14 15
14 15 16 17 17 18 19 22 22 23 25 24 21 16 10 4 6 5 5 3 5 6 5 5 5 5 3 6 4 2 6 6 7 9 9 11 10 12 13 13 15 15 13 11 9 12 13 11 12 13 13 13 15 14
13 14 16 17 17 18 19 21 23 25 27 25 20 11 5 6 3 6 4 5 5 6 6 4 5 5 3 6 4 5 5 7 8 10 11 11 11 11 11 15 14 11 12 9 11 13 14 13 14 14 13 14 14 15
13 14 15 17 17 18 20 22 23 26 28 26 9 6 4 5 2 6 5 5 7 6 6 6 4 8 6 7 7 6 5 6 8 8 8 11 12 16 17 15 12 6 9 11 11 10 11 12 14 15 17 15 14 14
14 14 15 16 17 17 20 20 20 25 13 6 6 4 7 2 5 6 4 4 5 5 6 3 4 8 5 8 9 5 5 6 6 8 6 7 10 2 13 6 6 4 6 7 7 9 11 12 14 14 14 15 13 12
14 14 15 16 16 16 18 16 17 12 8 7 7 8 5 5 4 4 5 4 5 1 4 2 5 8 3 3 5 4 6 6 6 2 4 7 5 9 5 3 0 6 7 7 9 11 12 13 13 14 14 12 13 11
14 14 15 16 17 15 14 12 14 14 15 3 5 5 2 1 2 6 7 5 4 3 4 4 6 3 5 4 6 4 6 7 6 4 9 5 8 6 4 4 4 7 9 10 11 11 11 11 13 13 13 12 12 10
14 15 16 16 17 16 10 11 13 11 5 5 3 3 6 6 6 2 5 5 2 4 6 6 7 6 1 4 5 4 5 6 5 7 5 3 4 8 5 5 6 9 9 10 9 10 10 11 12 13 11 10 11 10
14 16 18 19 6 7 11 14 15 5 3 5 5 5 6 4 2 2 5 3 4 4 6 6 7 8 6 5 4 4 4 6 2 5 5 6 12 10 9 8 8 8 9 9 10 10 11 11 12 11 11 9 8 7
14 17 2 7 8 11 12 14 5 2 2 3 5 7 5 6 6 5 5 5 2 4 5 6 4 5 7 4 4 4 4 1 4 6 7 7 10 12 12 10 10 10 10 10 10 11 11 10 11 10 8 7 5 5
11 5 7 9 11 13 11 4 3 4 4 4 6 9 8 6 6 6 4 5 4 5 7 4 5 2 6 4 2 1 3 7 9 9 6 11 12 13 12 12 11 13 10 10 9 9 9 10 10 9 5 7 8 3
6 8 9 9 8 6 2 3 3 3 5 5 7 6 2 4 6 6 5 4 5 6 7 5 4 4 3 5 1 2 5 5 6 6 9 11 13 12 9 9 4 11 15 9 10 10 10 6 9 7 4 3 6 10
9 10 11 8 5 3 3 3 4 4 5 6 6 7 6 7 6 7 6 5 5 7 4 5 6 6 3 3 7 7 6 9 7 7 9 12 7 7 6 8 14 11 9 11 10 8 7 6 7 7 9 7 6 7
12 11 9 5 4 2 5 3 2 4 5 5 8 8 7 7 7 5 5 4 4 2 6 6 9 6 3 6 7 8 8 6 5 8 8 6 7 8 9 5 9 10 11 9 8 5 7 5 5 2 5 7 7 9
5 3 4 4 2 3 5 3 4 4 5 5 6 7 7 7 6 5 5 5 6 5 8 10 9 5 10 9 7 7 7 6 6 7 10 10 8 7 9 10 8 9 8 4 5 5 5 4 4 5 6 7 5 6
0 2 2 4 4 5 5 4 4 5 5 7 7 4 5 5 3 2 2 4 4 5 7 7 8 9 10 11 10 10 5 5 12 11 12 13 12 9 7 7 7 7 4 4 5 6 6 10 7 7 9 7 7 7
3 3 3 3 3 2 5 4 3 3 4 4 4 3 4 1 3 2 0 4 4 5 10 8 10 11 11 11 8 14 12 15 12 11 11 9 10 6 6 4 4 4 4 3 5 4 6 6 3 6 9 9 6 6
1 3 3 2 4 4 3 4 4 4 3 3 3 5 1 2 2 2 2 1 3 5 5 11 8 9 8 7 4 4 6 6 12 5 7 8 5 5 9 12 7 3 4 5 6 8 10 9 8 4 6 9 8 8
3 4 3 4 5 5 4 4 4 3 4 4 4 5 2 1 2 2 1 2 3 6 6 8 6 6 6 8 6 5 7 7 8 9 10 10 7 8 10 9 7 10 8 7 6 7 7 7 10 4 4 7 10 13
5 6 5 5 4 5 3 4 3 4 5 4 1 5 4 2 3 3 5 7 6 6 7 7 6 5 6 6 7 7 9 9 7 5 6 6 5 5 4 8 8 8 9 8 8 10 11 9 8 11 11 3 8 13
4 5 6 4 2 2 5 4 5 4 5 2 1 5 4 3 1 2 2 4 4 7 7 6 5 6 6 6 6 7 7 8 6 4 2 8 4 5 7 5 6 6 8 10 11 11 12 13 11 10 9 11 12 13
5 4 8 5 6 4 6 4 4 4 2 2 3 3 4 4 2 4 4 4 6 6 6 7 6 5 6 6 7 5 5 4 3 1 2 5 4 4 8 5 8 10 9 11 11 12 12 11 12 13 13 13 12 12
6 6 5 7 7 4 5 5 5 2 3 4 1 2 1 2 4 3 1 3 4 4 7 8 8 7 9 6 6 7 4 5 9 11 11 8 9 9 9 7 7 7 6 8 15 12 14 13 13 11 11 10 10 12
7 6 6 7 9 6 7 7 4 2 4 4 3 7 6 2 2 4 2 2 3 4 5 7 10 9 7 7 5 5 4 8 8 10 9 9 6 7 5 8 8 8 9 9 8 10 9 11 12 11 12 10 9 9
3 6 8 9 10 10 11 9 9 7 7 8 8 8 7 3 4 3 4 2 1 3 5 8 11 10 10 8 8 8 8 10 11 11 10 7 5 6 7 7 7 8 8 9 10 9 8 8 9 11 12 13 13 12
4 8 6 7 9 7 5 7 9 8 6 5 7 6 6 5 1 2 2 2 1 4 8 8 7 7 9 9 7 6 10 8 10 10 12 9 8 10 10 9 7 7 9 11 11 11 12 13 12 12 12 14 14 14
8 6 6 5 5 9 9 9 6 7 9 10 7 8 2 2 2 1 2 5 4 6 8 7 7 8 10 8 6 7 8 6 5 5 6 9 14 12 6 4 5 9 10 10 11 11 13 14 12 13 12 13 13 13
Wind_Direction
357 355 354 353 354 355 356 357 353 351 350 356 357 359 360 360 355 343 6 14 337 306 302 291 287 282 271 253 272 18 242 230 257 239 257 263 264 263 267 266 269 269 248 245 242 260 268 41 118 246 355 330 317 319
353 352 351 350 350 349 348 346 347 345 348 350 351 351 353 353 353 337 290 11 332 262 304 323 287 288 282 292 301 293 254 297 286 263 231 259 264 264 263 278 249 245 253 283 294 314 119 122 280 284 291 307 300 297
350 349 348 347 345 343 342 341 341 343 346 347 347 345 343 344 343 339 315 323 292 263 271 231 234 186 244 241 261 267 274 282 263 285 304 288 279 276 271 261 259 256 248 260 269 283 292 298 297 310 297 293 292 285
347 346 345 343 340 339 337 337 338 341 341 340 339 337 336 333 326 316 316 343 284 288 281 101 82 216 17 262 258 249 267 284 287 285 271 266 266 260 262 277 275 287 316 293 281 272 271 273 282 310 305 307 289 280
342 341 339 338 337 336 335 336 339 338 337 335 329 324 324 321 310 279 258 300 299 308 329 319 309 286 320 270 250 250 249 250 251 246 242 250 261 266 268 276 258 274 282 274 281 288 304 305 303 305 298 297 287 291
337 338 339 336 335 335 335 336 336 335 334 331 327 320 319 313 291 253 194 132 262 320 277 287 22 241 260 231 255 252 238 243 246 248 253 261 266 262 260 261 263 258 260 284 280 287 278 281 283 289 282 278 274 272
334 335 336 333 332 332 333 335 334 331 327 323 321 318 315 304 249 316 11 32 337 307 255 284 278 127 266 260 233 238 224 246 244 249 242 264 269 236 259 262 279 280 263 254 273 282 287 284 280 270 317 309 296 279
329 331 332 330 330 330 331 333 330 325 322 318 318 318 312 293 258 192 115 278 294 267 270 275 279 259 43 291 267 157 256 223 234 247 255 239 241 246 258 260 276 280 278 279 290 276 268 288 296 294 282 284 280 266
324 327 329 327 328 329 329 328 327 321 318 315 308 309 240 228 249 59 331 255 218 295 302 265 303 331 357 295 294 253 244 262 229 239 236 256 248 244 241 234 257 271 274 299 308 307 301 289 283 279 289 294 294 281
320 324 327 325 327 329 332 332 326 319 315 304 279 214 184 43 318 221 182 201 206 180 223 262 300 271 290 321 298 278 245 233 268 234 225 238 252 266 270 266 275 342 318 298 286 284 295 307 306 303 298 291 291 289
319 323 324 322 324 327 332 331 326 319 289 336 337 346 350 327 244 219 259 239 159 225 194 233 304 318 330 307 321 299 302 294 255 266 220 261 258 308 225 238 15 310 268 272 285 289 296 306 305 301 300 288 282 280
315 317 318 318 320 324 330 326 331 328 355 327 304 286 268 239 244 235 229 169 240 325 31 316 272 277 296 298 266 253 254 247 254 68 235 260 60 68 83 94 201 281 279 283 294 295 300 305 309 304 297 272 273 279
310 313 312 313 317 323 319 321 330 312 287 185 225 240 271 189 342 229 190 206 180 33 350 303 298 284 221 242 262 254 248 248 299 228 243 311 101 99 70 41 346 312 300 286 288 299 305 309 313 309 300 286 270 275
309 312 307 308 311 313 313 318 325 321 282 279 267 295 237 188 239 260 334 34 49 261 287 320 299 294 270 246 278 255 262 309 235 252 32 327 40 64 11 3 328 329 324 314 308 303 315 320 321 319 296 271 266 268
310 307 299 293 295 320 318 313 305 289 296 285 301 245 226 294 308 263 264 291 255 274 287 314 287 247 266 246 249 279 257 244 311 51 23 347 350 0 349 342 343 337 339 331 323 322 321 325 320 328 330 314 277 283
317 300 228 7 324 318 315 300 265 228 237 257 246 262 231 248 244 214 242 267 325 301 310 254 299 277 234 260 225 221 268 326 354 3 348 333 354 344 324 326 332 327 322 318 323 324 316 311 317 323 314 320 322 288
306 254 23 330 315 301 290 276 242 241 250 239 241 221 250 278 284 299 302 299 325 283 275 286 254 297 302 249 241 150 233 319 354 336 328 323 332 326 310 310 332 331 324 325 328 324 317 307 308 304 346 330 311 307
245 295 312 304 318 322 230 234 272 272 252 248 261 274 276 292 289 281 279 303 289 268 272 284 310 238 272 295 257 313 299 289 302 320 314 306 312 309 293 324 33 288 292 324 325 311 285 317 310 307 317 257 281 251
268 282 300 305 302 322 293 221 246 263 255 266 274 274 268 275 273 277 274 273 261 281 266 248 250 253 305 342 332 334 327 319 328 309 280 283 285 291 318 323 291 279 319 308 296 301 317 307 281 284 291 295 281 312
275 261 258 260 219 244 255 213 221 283 284 306 297 277 281 295 302 278 274 237 220 188 240 232 255 280 296 294 301 310 319 307 302 302 288 306 299 311 302 283 298 321 288 278 281 352 294 292 293 319 344 339 310 279
224 152 181 213 205 239 286 272 236 253 289 270 280 313 292 277 268 269 251 224 193 224 244 241 258 266 231 259 276 281 256 255 257 293 293 296 290 285 298 291 283 296 285 285 285 324 285 276 344 314 309 299 305 337
182 202 235 182 244 197 262 252 271 309 282 292 300 302 280 278 258 203 241 237 258 253 283 325 331 331 310 301 306 292 264 270 272 277 276 264 255 257 258 276 290 282 284 285 0 334 322 296 13 323 308 308 320 291
208 232 238 231 267 213 262 241 258 237 263 270 288 259 229 253 298 86 299 8 340 346 328 322 312 310 289 291 267 263 266 269 277 279 264 258 255 273 291 288 295 284 297 22 334 270 276 328 275 280 304 292 296 306
264 269 257 217 225 263 236 237 230 252 266 274 247 270 286 213 250 171 114 251 269 288 318 337 332 323 324 311 297 279 286 272 257 296 32 301 310 41 332 1 359 311 21 316 350 348 337 336 334 340 348 333 354 328
238 200 195 231 224 242 252 239 235 228 265 285 276 271 248 239 250 108 56 325 301 335 345 329 334 325 316 313 333 328 349 349 336 335 354 6 358 355 1 354 338 348 324 5 355 300 283 299 297 306 312 356 353 347
232 184 214 218 197 229 227 255 193 237 275 279 299 293 304 309 25 49 352 3 334 320 342 332 332 317 313 336 348 352 6 348 353 19 16 0 7 7 1 310 330 343 9 341 332 328 326 325 341 359 346 316 44 30
245 230 218 231 235 263 266 267 260 256 256 237 30 297 305 48 36 263 357 14 316 342 342 329 334 345 346 343 337 8 334 322 344 338 313 294 281 300 252 294 340 357 328 0 356 335 345 7 3 9 25 42 25 34
267 244 238 241 238 236 256 265 255 245 269 169 198 239 339 20 30 24 37 331 359 356 332 356 344 337 319 296 291 286 280 284 329 284 282 337 340 288 4 347 19 46 50 26 6 25 10 28 40 49 52 49 44 38
218 224 228 223 224 229 230 245 252 213 177 255 182 265 301 298 30 64 188 309 27 338 4 345 322 305 293 285 271 270 4 25 359 359 7 27 13 4 350 17 28 47 68 81 64 46 45 47 50 61 64 62 59 54
235 202 228 236 202 213 240 245 248 267 296 295 296 284 279 32 107 121 104 63 9 346 324 294 283 287 307 342 355 359 348 21 15 356 354 5 357 322 321 31 39 44 53 65 55 61 38 57 54 53 54 53 51 54
281 201 223 252 259 251 255 243 236 262 259 253 244 249 272 301 111 103 100 100 327 306 316 317 330 353 346 352 1 354 3 21 14 2 355 339 345 341 18 30 29 40 47 54 58 54 62 65 65 65 62 64 63 55
219 224 226 230 252 275 284 289 268 252 252 255 264 258 233 222 165 129 136 173 284 302 292 302 355 359 357 358 24 62 36 22 11 6 9 1 3 38 36 33 23 5 55 55 50 58 57 55 52 51 54 50 44 38
202 232 243 257 263 251 239 230 254 249 227 223 218 216 148 83 116 82 34 15 332 302 312 359 13 21 25 3 24 83 63 59 42 26 9 30 34 22 14 1 51 53 57 58 59 62 57 52 49 45 44 43 41 34